Location: Mentone
(34.5413°N, 85.5351°W)
Time: 13:06:54
(UTC-05:00)

Centaur AC-72 - Visible Passes

Search period start: 04 May 2015 00:00
Search period end: 14 May 2015 00:00
Orbit: 1097 x 35259 km, 18.9° (Epoch: 04 May)

Date Brightness Start Highest point End Pass type
(mag) Time Alt. Az. Time Alt. Az. Time Alt. Az.
04 May 4.4 03:49:16 30° SSW 03:53:17 39° S 12:48:09 10° SE visible
05 May 5.4 21:59:39 10° SSW 22:02:48 13° SSW 22:02:48 13° SSW visible
08 May 4.4 03:34:06 32° SSW 03:37:24 38° S 12:29:53 10° SE visible
09 May 5.1 21:42:53 10° SSW 21:48:11 14° S 21:48:11 14° S visible
12 May 4.4 03:18:58 33° SSW 03:21:31 37° S 12:11:23 10° SE visible
13 May 4.9 21:26:08 10° SW 21:33:04 16° S 21:33:33 15° S visible
